Location: Unspecified
(0.0000°N, 0.0000°E)
Time: 19:57:16
(UTC+00:00)

deb Briz - Pass Details

Date: 21 February 2026
Orbit: 1858 x 2172 km, 64.9° (Epoch: 11 March)

Event Time Altitude Azimuth Distance (km) Brightness Sun altitude
Rises 03:44:13 0° 200° (SSW) 5,483 ? -36.6°
Reaches altitude 10° 03:47:30 10° 199° (SSW) 4,518 ? -35.8°
Maximum altitude 03:59:25 85° 110° (ESE) 2,137 ? -32.9°
Drops below altitude 10° 04:11:47 10° 23° (NNE) 4,681 ? -29.9°
Sets 04:15:15 0° 22° (NNE) 5,687 ? -29.0°
